Wind_Speed
12 11 11 10 10 10 10 11 11 11 11 12 12 12 12 12 13 12 12 12 12 12 12 12 12 12 12 12 14 15 15 17 18 21 23 24 27 32 36 39 40 39 40 41 41 41 40 39 39 41 42 44 47 48 47 43 36 32 33 39 42 40 40 36 32 30 26 26 27 26 25 23 20 18 17 17 18 20 19 16 14 14 13 14 16 16 14 13
12 12 11 11 12 12 12 13 13 13 13 13 14 14 14 13 13 12 11 11 11 11 11 11 11 11 11 11 13 14 14 15 17 19 19 18 22 26 28 33 36 36 37 38 40 40 39 39 37 38 39 41 44 46 46 42 37 36 36 40 45 42 39 34 32 31 28 27 27 26 27 26 24 22 18 18 19 18 20 20 17 17 15 17 22 18 16 14
12 12 12 13 14 14 15 15 15 15 15 15 15 15 14 13 12 11 11 10 10 10 11 11 11 11 12 12 14 15 15 16 19 20 16 16 20 22 23 26 30 31 33 35 38 40 40 39 37 37 38 38 39 39 42 39 36 40 40 42 45 42 38 35 33 33 31 29 29 28 28 27 25 23 22 21 20 19 19 19 18 18 16 19 25 20 16 15
13 13 14 15 16 17 17 17 17 17 17 17 15 13 13 12 12 11 11 11 12 12 13 13 13 13 13 15 16 16 18 19 22 22 15 16 18 19 20 21 23 26 29 31 34 38 39 38 38 38 38 38 37 33 35 37 37 39 42 46 44 39 38 38 35 33 32 30 31 30 27 28 25 20 21 21 22 22 21 19 18 18 16 18 24 20 15 14
14 15 16 17 18 19 19 19 19 18 17 15 13 12 12 12 12 12 13 13 14 15 16 15 15 15 15 17 17 18 19 15 18 23 18 20 21 20 21 19 20 22 24 27 30 34 36 37 38 38 39 39 35 32 34 36 36 36 40 46 44 40 38 37 36 35 34 32 32 33 31 30 27 23 22 21 24 23 20 19 18 19 19 18 20 17 14 14
15 16 17 18 19 20 20 20 20 20 19 15 13 13 14 14 14 15 16 16 17 17 17 17 17 17 17 18 19 19 18 11 17 26 22 23 25 23 23 22 21 21 21 23 26 30 33 35 37 39 41 39 36 34 33 33 34 36 39 41 42 42 40 35 33 33 35 36 36 35 34 32 29 28 25 22 25 23 19 18 16 15 17 18 18 17 14 15
16 17 18 19 20 20 21 21 21 22 20 17 16 16 17 17 18 19 20 21 22 22 21 21 21 21 21 21 22 21 21 17 21 28 24 24 26 24 25 24 23 22 22 22 23 27 31 33 37 39 39 38 37 35 33 30 32 38 39 37 38 39 41 40 35 32 31 36 40 35 32 33 33 31 28 26 25 23 22 21 18 14 13 13 16 19 18 17
17 18 18 19 20 20 21 22 22 23 20 18 17 18 18 18 19 20 21 23 24 25 26 26 26 27 26 26 25 23 23 21 21 27 25 24 26 24 24 25 24 23 23 24 24 25 29 32 35 36 36 36 35 33 32 31 33 39 40 36 34 34 36 40 39 35 31 31 35 34 33 35 35 32 31 31 27 24 25 23 22 21 18 14 16 23 23 19
18 18 19 19 19 20 21 21 22 23 22 20 19 19 19 19 20 20 21 22 24 25 26 27 28 29 29 29 28 26 24 20 21 27 26 24 25 25 24 25 25 23 23 26 24 24 28 31 33 33 33 31 30 31 31 33 36 36 37 36 33 33 31 33 38 38 33 30 30 33 36 37 35 33 36 36 29 25 24 23 23 22 23 21 17 23 26 20
18 18 19 19 19 20 20 21 22 22 22 22 21 21 20 21 21 22 23 23 24 26 26 27 28 28 29 29 30 29 23 21 24 26 25 24 25 25 25 25 25 23 24 27 26 26 26 30 31 29 29 29 27 30 32 36 37 31 31 35 34 33 30 28 34 37 33 31 31 33 37 39 36 36 39 36 30 29 25 23 24 22 23 23 20 25 28 23
19 19 19 19 20 20 20 21 21 21 22 22 23 23 22 23 23 24 24 25 26 27 28 28 28 29 29 29 29 28 23 22 25 27 27 25 24 25 25 25 25 24 24 27 29 27 26 30 30 25 25 29 28 28 32 34 33 30 27 30 34 34 32 29 30 34 33 32 33 34 36 37 37 40 42 33 28 30 28 26 25 23 23 23 23 27 27 23
19 20 20 20 20 21 21 21 21 21 21 21 23 24 24 25 25 26 25 26 27 28 29 28 29 30 31 32 28 23 22 22 24 27 27 24 23 23 24 25 25 25 25 27 31 28 26 30 32 30 24 22 27 25 26 31 30 30 27 25 29 31 34 34 31 32 33 33 31 30 34 40 42 44 41 33 29 28 26 28 26 23 24 22 23 28 25 22
20 21 21 21 21 21 22 22 22 22 22 22 22 23 25 26 27 27 27 28 28 29 30 29 30 31 32 33 28 23 23 23 24 25 24 22 23 22 23 24 24 26 26 28 32 30 27 29 33 39 31 16 22 23 19 24 28 30 29 26 25 29 36 36 32 32 33 33 29 27 35 44 44 42 38 33 33 31 29 30 28 25 25 22 23 30 27 23
21 22 22 23 23 23 23 23 23 23 24 23 22 23 24 25 27 28 28 28 28 29 29 29 29 30 33 33 28 26 24 23 23 22 21 22 23 22 23 24 24 25 26 28 33 32 28 29 32 40 40 24 18 20 18 21 28 30 29 28 29 31 35 34 32 33 34 33 28 28 38 44 39 37 37 34 33 32 32 32 29 28 27 24 25 30 28 25
22 23 23 24 24 24 24 25 25 25 25 24 23 23 23 24 26 26 27 27 26 27 27 28 28 29 34 34 29 26 24 24 23 21 21 22 23 23 22 24 25 25 27 29 34 34 29 29 30 35 44 36 23 18 19 22 28 31 30 31 34 34 31 30 33 35 35 33 30 32 38 40 36 33 32 35 35 32 32 31 28 28 27 25 27 30 26 25
23 24 25 25 25 26 26 26 26 27 27 25 23 23 23 24 24 24 25 25 24 26 25 26 27 29 32 32 29 27 26 25 24 23 24 23 23 22 21 23 25 26 29 31 35 35 29 27 28 32 37 36 30 21 18 24 29 32 35 33 33 35 31 27 31 36 36 33 33 38 37 32 31 32 30 31 36 36 34 32 29 28 27 27 30 30 25 25
24 25 26 27 27 27 27 27 28 28 28 26 24 22 23 24 24 25 25 25 24 23 24 24 26 29 30 27 23 22 21 24 28 28 27 25 22 20 21 22 24 25 27 31 34 31 27 25 26 30 32 32 34 27 22 30 34 34 38 35 31 35 35 29 28 33 37 35 35 38 38 33 26 26 29 30 34 35 34 33 32 30 28 29 32 31 26 26
25 26 27 28 28 28 28 28 29 29 29 27 25 22 23 24 24 24 25 26 24 21 22 24 24 23 20 18 18 19 17 22 31 31 26 25 23 21 21 22 23 23 22 25 30 29 25 25 24 26 30 33 36 35 34 37 39 35 35 36 33 32 35 35 29 30 36 37 37 36 37 38 31 24 25 29 32 33 33 33 32 30 30 30 32 32 26 27
26 27 28 29 29 29 29 29 29 30 29 28 25 22 21 23 24 23 24 26 24 20 19 22 26 26 21 17 18 20 17 19 28 30 25 23 23 20 20 21 21 22 22 23 27 29 27 25 27 30 34 39 41 44 43 38 34 32 31 32 34 32 33 37 31 28 33 35 37 38 34 34 34 30 25 26 31 33 32 32 30 30 31 30 31 32 27 27
27 28 29 30 30 29 29 28 28 29 29 27 24 21 17 16 17 17 22 27 26 27 25 23 26 30 29 25 21 19 17 21 26 25 20 20 18 15 15 17 18 21 24 27 27 28 29 28 33 38 39 40 42 42 40 34 29 29 30 30 33 35 32 34 33 29 31 33 36 38 34 31 33 35 29 25 29 33 32 31 30 30 32 30 31 32 29 27
27 29 30 31 30 29 28 27 27 27 28 26 23 20 13 11 13 13 22 29 27 28 31 27 24 27 27 24 22 19 19 23 23 18 14 15 16 16 17 17 19 23 27 29 27 26 31 34 37 38 36 35 36 37 35 34 31 28 30 30 33 37 33 30 34 31 30 31 32 34 35 33 31 33 33 28 28 31 32 31 30 31 32 31 32 33 30 30
28 30 31 31 30 28 27 27 27 26 25 23 21 19 12 12 17 19 26 32 30 26 26 23 20 22 22 20 20 18 18 21 20 18 15 14 18 20 18 18 22 25 27 29 30 28 32 38 37 35 33 31 32 34 33 35 35 28 26 29 31 36 34 29 32 32 30 30 29 31 35 35 31 32 34 33 30 30 30 30 30 31 32 32 35 34 32 33
29 31 31 31 29 27 26 26 26 24 22 20 18 17 14 15 21 23 27 33 34 24 16 15 14 15 15 13 14 15 18 20 20 20 17 16 20 21 19 20 23 25 27 32 34 32 33 37 35 32 32 32 33 35 34 35 37 33 28 29 29 33 35 30 30 31 30 30 27 26 31 33 31 31 34 35 31 28 28 29 29 30 32 33 36 36 35 35
30 32 32 30 28 25 24 24 23 21 20 18 17 16 16 18 20 23 27 34 33 19 9 10 11 11 10 11 14 15 16 18 18 19 18 19 21 21 22 22 22 24 28 32 34 33 32 31 31 31 32 35 36 35 37 36 36 37 34 30 27 32 37 30 28 30 27 27 27 25 26 30 32 32 34 35 32 29 28 28 29 31 31 32 36 37 36 36
31 32 32 30 26 24 23 23 21 18 18 17 17 16 16 18 19 23 27 29 24 13 8 11 10 9 10 11 13 12 13 16 18 16 17 21 22 22 22 22 22 24 27 30 33 34 33 28 27 31 34 36 37 36 39 37 35 37 35 31 27 29 35 31 27 30 27 25 29 28 21 22 31 34 33 35 35 33 30 29 31 31 31 32 35 36 36 38
32 32 30 28 25 23 22 21 20 18 17 16 16 15 16 19 20 24 25 20 13 6 7 11 10 11 11 12 13 9 10 15 16 14 16 20 21 22 21 21 24 23 23 27 31 32 32 29 27 31 34 35 37 37 38 38 36 35 33 31 28 26 31 33 29 30 28 24 27 30 22 15 24 34 35 34 35 35 32 31 33 32 32 33 34 36 37 39
32 31 28 25 24 24 20 18 18 17 16 16 15 15 17 20 21 22 18 11 8 5 7 12 12 13 12 13 15 9 6 7 8 12 16 18 19 22 22 22 24 23 20 22 28 30 30 29 27 31 35 35 37 37 38 40 38 33 30 30 27 26 29 32 31 29 26 21 21 30 29 19 19 30 35 35 35 36 35 33 34 35 34 34 35 39 41 40
31 29 26 23 23 22 19 17 17 16 16 15 15 17 18 21 22 17 9 5 6 5 9 13 15 17 15 15 16 11 8 5 5 9 12 16 18 21 23 22 22 22 20 20 25 26 28 29 28 31 35 35 37 36 35 41 40 31 28 28 24 22 26 30 30 26 24 21 20 29 32 21 17 24 31 36 38 37 37 36 34 35 35 35 38 41 43 41
30 28 24 22 21 19 19 17 17 17 16 16 17 18 20 22 19 11 4 5 5 7 11 14 16 18 15 13 13 12 13 10 9 9 9 15 19 20 22 22 20 19 19 21 22 22 25 27 25 29 35 33 33 33 32 39 40 30 26 29 23 17 22 29 27 24 23 20 20 27 32 22 15 21 29 36 41 39 37 36 33 34 35 36 40 40 41 43
29 28 24 21 19 18 19 17 16 17 16 17 19 20 21 21 15 6 6 5 6 11 13 14 15 17 15 12 11 12 15 14 12 10 10 15 19 19 19 18 18 18 18 22 23 19 20 23 23 26 31 29 28 30 31 36 39 30 24 29 26 16 20 26 25 23 19 16 21 27 33 26 15 20 29 33 38 38 35 35 34 34 35 37 41 40 40 42
29 27 23 20 19 19 19 18 17 18 18 18 20 21 22 17 9 6 6 6 11 12 12 15 16 16 15 10 11 12 13 15 13 10 11 16 18 19 18 17 18 18 18 22 22 17 16 21 24 25 27 26 26 29 29 32 39 34 25 29 29 21 19 20 22 22 14 13 24 28 30 29 20 19 25 29 33 35 35 36 36 36 36 37 41 41 41 42
28 27 24 20 18 17 17 17 17 17 18 19 20 22 19 10 6 7 8 11 10 9 14 19 17 15 12 10 11 11 9 11 14 13 13 17 18 21 22 21 20 18 17 20 19 15 16 20 24 25 26 26 26 30 29 32 40 36 27 30 28 19 16 14 14 16 13 13 24 28 27 26 25 24 22 23 29 32 34 36 36 38 37 37 40 41 41 40
28 28 24 19 17 16 15 16 16 16 18 18 19 20 13 5 6 8 13 13 9 12 19 21 17 14 11 10 11 11 9 10 14 15 14 16 17 20 22 22 23 18 13 17 20 18 16 18 23 26 27 26 27 31 33 36 41 36 32 34 27 15 11 12 11 12 13 15 21 28 25 20 23 28 23 19 26 30 31 34 36 37 38 37 38 39 42 40
28 28 25 19 16 17 18 18 17 17 17 16 18 16 8 7 9 12 14 14 14 17 18 18 17 14 10 9 8 8 9 9 12 14 14 17 17 18 21 22 24 21 13 16 22 20 15 15 24 29 28 26 27 30 31 35 38 34 32 34 29 21 14 12 11 11 12 15 20 24 22 18 18 24 26 20 20 25 28 31 34 35 36 36 34 36 42 42
28 28 24 19 16 17 19 19 18 18 16 15 15 12 8 10 11 14 16 17 20 20 17 16 15 12 9 10 9 6 9 8 11 14 14 17 17 18 20 20 23 22 16 15 19 20 16 16 25 29 26 26 27 27 28 32 35 32 31 32 30 26 20 13 12 14 13 13 16 18 19 22 17 14 22 21 17 22 25 28 33 34 34 35 33 34 39 40
29 27 22 19 19 20 21 19 18 17 15 13 12 9 10 12 14 15 18 22 23 22 21 15 8 9 8 8 9 8 10 9 12 15 14 16 17 17 18 17 19 20 17 14 15 18 16 15 25 28 24 25 26 25 27 31 34 31 31 32 29 25 21 16 12 14 15 10 12 17 18 22 17 9 18 23 19 21 24 27 32 32 33 35 33 34 37 38
29 24 20 22 22 22 22 20 17 14 13 12 11 10 11 14 16 18 22 24 23 23 21 13 6 7 7 4 5 6 9 9 12 14 13 15 15 17 18 16 16 19 16 13 13 15 13 13 26 29 25 26 26 23 25 30 33 32 30 31 28 22 20 19 11 10 13 8 10 19 18 18 18 13 17 24 21 21 24 28 31 30 33 34 33 35 38 38
28 23 22 25 26 24 22 18 14 13 14 14 13 13 13 15 17 19 21 23 22 22 18 10 7 6 4 5 4 2 6 9 13 12 12 14 11 15 19 16 15 18 16 12 10 12 12 13 23 29 25 27 26 22 24 29 33 31 27 27 26 20 19 22 14 8 12 8 8 17 19 17 18 17 20 24 22 22 24 28 30 31 33 33 33 36 38 37
27 22 22 25 26 25 20 14 14 16 16 14 13 14 14 18 20 16 16 19 20 20 14 8 6 7 4 3 3 2 4 6 12 11 11 13 9 13 19 15 14 16 15 12 9 9 11 11 19 27 26 28 28 24 26 32 34 31 26 25 25 19 18 22 18 12 12 9 7 13 15 15 17 17 22 25 23 23 24 27 30 31 32 32 34 37 37 35
24 19 17 22 25 24 18 13 16 18 15 12 14 16 17 21 21 13 11 17 19 18 15 10 7 7 5 5 4 2 2 4 10 9 8 11 8 11 17 14 13 15 14 13 10 8 10 10 15 24 26 27 29 26 28 33 35 33 30 29 26 20 19 20 18 18 16 9 7 9 10 14 18 16 19 24 25 25 25 27 29 31 32 32 35 37 35 34
21 15 15 18 21 22 16 16 19 16 13 13 16 19 19 20 20 13 12 18 20 18 16 12 7 7 6 6 5 2 3 5 9 9 8 11 10 10 16 16 13 14 15 14 12 10 10 10 15 25 27 27 29 27 26 29 32 32 32 31 27 23 22 17 13 19 22 14 9 9 8 13 19 16 15 21 25 26 26 27 28 29 31 32 34 36 34 32
17 13 15 15 18 20 18 17 16 13 11 12 16 19 19 21 21 16 13 17 20 19 16 11 6 5 6 5 2 1 5 6 8 9 8 11 10 9 14 16 14 14 16 14 11 11 11 8 14 26 26 24 26 24 23 27 29 28 28 30 27 23 23 18 12 16 21 19 15 11 8 11 18 17 13 17 23 25 26 27 27 28 29 30 31 34 35 31
14 12 17 17 16 20 19 15 13 12 10 11 16 20 18 19 20 17 15 15 16 17 16 12 6 3 4 4 2 3 7 9 10 10 8 8 10 9 12 16 16 14 15 13 9 11 10 5 13 23 21 21 24 22 22 25 27 24 24 29 29 24 21 18 15 16 16 16 17 12 7 10 17 17 13 15 19 22 24 26 26 26 27 28 31 35 34 29
17 15 21 22 18 18 15 11 15 17 14 14 19 22 19 17 15 15 16 14 12 15 16 14 8 3 5 4 5 6 6 7 9 10 9 8 10 11 12 16 16 14 14 12 9 12 9 4 12 18 15 15 19 19 22 27 28 25 24 28 28 26 23 16 14 17 14 13 15 12 8 12 16 15 15 15 17 19 23 25 25 25 26 27 30 33 30 26
18 15 19 21 20 18 13 12 18 19 16 20 23 22 22 20 14 12 14 13 11 12 14 13 9 5 6 6 6 8 6 6 7 9 10 10 10 12 15 17 17 14 13 11 11 12 8 6 12 14 12 12 13 16 23 30 32 28 26 27 26 26 26 16 12 15 14 14 16 11 9 15 15 14 16 18 18 19 21 24 24 24 26 27 28 28 26 25
16 13 19 19 15 16 16 14 16 15 16 22 24 22 25 25 18 11 11 13 12 10 10 10 10 9 6 6 7 8 9 8 9 10 11 12 11 13 18 18 16 14 13 14 13 10 7 8 14 15 16 18 19 21 26 29 31 30 29 29 25 26 27 18 12 14 15 16 14 6 8 15 14 14 16 18 20 19 20 22 23 25 30 30 27 24 25 26
15 15 22 21 13 13 13 10 11 16 18 21 23 23 24 25 22 15 10 12 13 12 12 10 10 11 6 7 9 8 5 6 9 9 10 12 12 15 19 18 15 15 15 15 14 9 8 11 14 16 17 19 20 22 26 27 29 30 30 30 26 25 27 22 14 14 17 17 12 10 11 13 13 13 14 15 18 19 20 22 23 27 31 30 26 25 25 28
15 17 23 23 18 15 12 9 14 21 21 20 21 20 21 23 25 20 14 15 15 13 14 13 11 9 5 5 8 7 5 2 5 4 6 11 14 16 20 17 14 15 14 14 13 9 7 9 12 14 15 16 17 20 24 26 26 26 28 30 27 25 27 24 17 16 17 13 11 14 11 11 10 9 9 11 14 18 20 21 23 26 27 24 23 25 28 30
16 18 21 22 21 18 15 16 20 20 18 18 17 18 21 24 26 23 18 20 20 15 16 19 14 5 2 2 5 6 4 1 0 1 5 13 15 19 22 17 14 14 13 13 12 7 4 4 9 12 14 14 15 18 24 25 24 24 26 29 28 25 27 26 20 18 14 9 9 9 8 10 9 5 7 10 13 16 19 20 22 25 24 21 21 24 27 29
16 17 19 20 21 20 17 15 15 15 14 15 16 17 21 22 23 23 20 19 21 20 20 22 17 9 4 4 6 6 3 1 2 2 4 13 17 19 19 15 14 15 13 11 9 7 4 3 6 10 13 13 13 16 24 26 24 23 24 27 28 26 28 28 24 19 11 5 4 3 5 8 8 7 6 10 13 16 18 20 22 23 22 20 20 22 26 28
16 17 19 21 21 21 17 12 12 14 13 15 18 19 20 20 20 22 21 17 18 19 19 20 19 15 12 9 9 6 2 2 2 1 5 12 17 18 15 12 13 15 13 9 7 7 6 3 4 9 11 11 11 14 20 24 23 23 25 28 29 28 28 29 27 21 13 9 7 3 5 7 6 9 6 6 10 15 17 19 21 21 21 20 19 22 26 28
16 17 18 20 21 20 17 12 14 15 12 15 19 19 20 20 18 20 21 17 14 15 18 19 20 20 16 12 9 5 2 1 2 6 10 14 17 18 15 12 11 13 13 10 7 8 8 6 5 9 11 13 14 15 19 21 19 20 26 28 29 29 28 27 26 21 15 12 9 3 5 7 3 7 8 5 6 12 15 19 21 20 21 21 20 23 26 27
Wind_Direction
334 333 330 329 325 322 320 315 313 310 308 304 301 297 294 292 291 292 292 292 292 292 291 289 289 288 287 286 283 281 279 276 273 269 264 261 258 257 256 252 250 248 246 244 243 243 243 242 242 241 240 239 238 238 236 233 229 227 227 231 234 234 234 235 235 234 238 240 238 236 236 234 228 226 231 230 234 235 237 245 242 235 235 241 250 259 257 251
336 335 331 328 323 321 318 315 314 310 308 304 301 298 296 295 295 296 296 297 295 295 296 296 297 296 298 296 294 295 291 288 282 273 272 269 263 261 260 256 252 250 247 245 243 241 241 240 240 240 239 238 238 237 235 231 226 223 223 230 234 234 235 235 235 235 239 243 239 238 238 234 234 233 233 234 237 241 242 241 239 238 238 251 260 262 258 254
335 334 329 325 322 320 319 319 317 314 311 307 303 299 298 298 299 299 299 297 294 295 296 297 301 302 307 305 305 307 301 302 292 280 281 275 266 265 263 259 255 251 248 245 243 240 239 237 236 236 237 236 235 235 234 228 224 223 225 232 235 235 237 235 235 237 239 242 240 239 240 235 234 234 234 237 240 241 241 238 236 237 236 248 261 266 257 254
333 330 327 324 322 321 321 320 317 315 312 306 302 299 299 301 300 301 299 298 297 297 298 299 302 304 308 307 309 309 306 309 294 284 287 279 272 271 267 262 257 252 248 244 242 240 238 236 234 233 232 234 232 230 229 224 222 225 227 232 235 235 238 236 236 239 238 240 240 238 240 235 230 232 233 236 241 240 239 239 239 241 239 238 251 261 256 254
329 327 325 322 321 321 321 318 316 315 311 303 295 294 296 298 298 299 299 299 300 300 302 303 305 308 311 310 310 309 310 313 291 285 288 283 281 279 275 269 261 255 249 245 241 240 237 234 232 231 230 231 229 225 226 222 221 226 229 233 236 234 237 238 237 239 238 238 240 238 237 235 232 236 239 238 240 241 239 238 244 250 242 230 236 244 249 260
326 325 322 321 321 322 321 318 316 316 312 300 292 294 295 297 299 300 302 302 302 302 303 303 304 306 308 309 309 308 306 299 282 284 286 285 284 281 280 275 266 259 253 248 240 237 236 231 229 229 229 228 225 223 225 222 220 227 232 233 235 234 236 238 236 237 239 237 237 237 236 233 233 238 242 243 241 242 239 235 249 255 233 225 231 236 253 271
325 323 322 321 322 322 321 318 316 315 308 294 289 292 293 296 299 302 305 305 306 306 304 304 303 302 303 303 303 303 298 291 283 283 284 285 284 283 282 277 271 263 255 251 243 237 234 230 226 226 226 226 226 224 224 223 222 227 232 232 233 234 235 235 236 238 240 238 235 235 235 229 231 240 243 247 247 243 239 237 247 242 218 220 232 246 264 272
324 323 322 322 322 321 319 317 314 313 306 289 284 288 290 294 298 302 305 306 307 307 307 307 306 306 305 302 302 300 295 294 288 284 286 284 284 285 283 279 273 265 256 250 246 240 234 229 225 222 223 225 226 225 223 224 226 228 230 232 233 234 235 234 234 236 239 238 233 229 230 228 234 244 246 249 250 243 239 239 241 232 226 234 240 257 268 267
323 321 321 320 319 318 315 313 310 310 303 288 280 284 288 292 297 301 303 304 305 305 306 306 308 309 307 306 304 300 298 297 287 284 287 285 283 283 281 281 277 269 258 249 245 241 235 229 223 219 221 225 227 227 223 223 227 228 230 232 233 231 233 234 231 231 234 232 226 225 230 234 238 247 250 249 245 241 240 238 237 230 231 239 241 256 266 265
321 319 318 316 316 314 312 310 307 306 303 290 279 280 284 288 293 296 299 302 303 304 305 305 307 307 306 306 302 298 301 299 288 283 286 286 286 284 282 282 280 276 264 250 243 240 234 230 223 216 221 225 226 229 225 224 228 228 231 233 232 230 229 233 228 224 227 225 223 226 234 238 241 248 249 245 240 240 241 238 235 230 232 236 235 251 263 265
321 318 316 314 313 311 311 311 309 307 305 295 283 279 281 284 287 290 295 298 300 300 301 302 303 303 303 300 296 297 299 294 290 289 289 290 288 286 284 283 281 280 271 254 243 238 234 229 219 212 223 224 223 231 228 226 228 228 232 233 230 229 228 230 223 217 221 225 225 229 238 243 242 244 242 240 240 238 238 237 232 229 235 236 236 250 261 261
320 318 315 314 312 312 312 313 314 312 308 301 290 282 280 282 283 286 290 294 296 296 297 299 300 301 300 294 294 297 292 290 292 290 291 290 287 284 282 282 280 279 275 259 244 236 232 227 217 209 210 218 222 228 230 226 226 225 225 228 227 226 226 225 219 217 220 226 226 228 239 243 239 238 237 239 239 234 235 235 228 229 236 231 234 253 259 255
322 319 316 314 312 313 315 317 318 315 310 305 297 288 283 281 282 283 287 289 291 292 294 296 297 298 295 293 297 295 289 291 290 287 289 287 285 283 281 280 279 276 272 260 244 234 228 222 219 212 199 203 222 220 225 222 219 220 221 224 225 223 224 221 217 219 221 224 221 220 234 239 235 236 237 238 234 231 234 230 225 230 234 224 231 254 259 250
324 320 316 314 314 315 317 319 319 316 313 310 304 295 286 282 281 282 284 286 288 289 291 294 296 296 292 293 297 293 291 291 287 286 287 286 286 285 284 283 282 277 268 255 241 233 227 219 220 216 204 198 206 218 231 221 214 216 218 222 221 221 222 218 216 218 218 221 214 214 232 237 235 237 235 232 230 229 229 227 227 229 229 222 230 253 256 244
324 321 317 315 315 316 317 318 318 317 316 314 309 300 292 287 285 286 287 288 288 288 291 294 294 292 290 294 296 293 291 288 288 289 285 286 289 288 287 286 285 280 267 250 235 232 229 219 219 217 211 200 188 214 233 215 210 211 212 216 216 220 222 216 216 215 213 215 210 212 229 238 237 238 233 227 226 223 223 225 226 224 224 222 233 251 250 237
324 321 319 318 317 317 317 318 317 317 317 315 310 303 297 291 289 289 289 288 288 290 293 294 293 291 290 293 295 294 290 287 289 290 288 290 288 285 286 283 279 277 268 249 234 231 229 222 219 216 214 206 197 211 219 207 208 207 210 214 212 215 219 218 215 212 210 211 210 214 226 237 237 235 231 224 223 221 222 224 222 220 221 224 238 249 240 227
325 323 322 322 320 319 317 317 318 317 316 312 309 306 299 294 292 292 290 289 289 289 291 292 293 291 291 296 296 292 286 286 289 290 293 293 286 283 281 278 274 269 263 250 235 228 224 221 220 215 213 210 207 208 206 205 206 204 209 215 214 213 216 218 213 207 206 208 212 217 225 233 234 232 229 225 221 219 220 221 219 219 219 224 239 244 232 222
327 325 325 324 322 320 319 319 319 316 312 310 310 309 303 297 294 291 291 291 289 288 293 299 297 288 292 308 306 293 283 282 285 288 293 291 283 281 276 272 269 259 247 241 233 222 216 216 217 215 211 210 209 207 208 207 204 202 205 210 214 214 214 216 214 205 202 208 214 218 223 228 230 229 228 225 218 215 215 216 218 219 218 222 233 238 227 217
329 327 326 325 324 322 320 319 318 314 310 309 310 311 308 302 298 297 297 297 295 295 301 302 295 286 283 287 285 284 278 270 276 282 285 284 281 279 273 268 259 245 229 225 224 216 209 210 212 212 210 208 206 206 210 210 207 208 207 208 212 213 214 214 215 207 198 204 214 217 221 224 225 225 226 224 213 211 214 215 217 217 216 217 225 231 221 211
330 329 327 326 325 323 322 320 316 312 310 311 312 312 312 307 306 306 300 299 301 305 309 302 291 285 282 278 274 272 268 270 282 287 275 267 269 258 255 260 245 230 222 217 217 212 205 208 211 210 209 208 207 208 212 214 213 214 212 212 212 213 215 211 212 209 197 203 214 216 219 221 222 222 223 219 208 210 214 215 216 214 212 211 218 225 216 209
330 329 328 327 326 324 323 320 315 312 311 313 314 314 317 311 305 298 293 296 302 309 309 303 285 274 274 274 271 264 257 268 281 285 267 251 246 237 237 243 230 222 220 214 212 209 206 212 214 211 210 208 208 209 211 214 217 219 216 213 212 213 215 209 209 209 198 205 216 215 217 221 221 219 218 215 209 212 214 215 214 210 208 207 214 220 211 208
331 330 330 328 326 324 322 319 315 314 312 313 315 314 314 307 304 306 306 306 312 316 310 303 286 271 270 270 267 259 251 257 257 252 251 239 231 233 232 230 226 222 218 211 209 207 207 215 216 211 209 207 207 208 208 212 217 220 218 214 212 210 211 209 206 206 199 204 215 214 216 221 221 218 217 214 214 216 216 215 213 208 206 205 210 213 206 208
333 332 330 328 326 322 320 318 316 314 313 314 315 312 307 306 310 317 318 314 320 328 319 306 291 277 275 269 262 255 248 250 250 245 239 228 227 230 227 226 229 223 216 210 208 207 208 214 214 209 207 204 204 207 206 210 215 216 215 215 211 204 205 205 199 200 200 203 212 213 216 222 220 218 217 215 215 216 216 214 211 208 206 206 210 210 206 206
335 333 330 328 325 322 320 318 317 316 316 316 314 310 310 312 317 324 321 316 322 334 338 316 296 279 273 264 261 257 250 247 248 246 233 223 223 226 226 225 226 225 219 212 209 212 213 213 211 207 206 203 203 205 203 206 210 210 214 216 210 202 202 202 195 196 199 203 210 211 215 220 218 216 216 215 215 215 214 211 208 208 207 208 210 208 206 206
336 334 331 328 324 322 322 320 320 321 319 317 314 312 315 318 322 326 323 320 321 322 323 328 322 299 284 280 279 265 255 252 246 238 226 222 220 220 225 224 222 225 224 214 209 216 219 214 208 206 205 202 202 203 200 202 203 205 213 215 209 202 198 197 191 191 196 202 206 207 213 218 214 215 214 212 213 213 211 209 206 205 205 207 206 203 206 207
337 335 332 328 324 324 327 324 324 326 322 317 315 313 318 323 325 328 326 317 306 281 293 315 314 303 296 294 294 276 259 259 251 237 220 221 220 215 223 225 219 223 226 217 210 216 220 215 208 204 202 200 202 203 200 199 200 204 209 208 205 201 194 195 194 191 198 203 201 205 216 219 208 213 213 209 210 210 208 207 206 204 203 205 203 202 206 207
339 338 335 330 326 327 332 330 327 328 324 319 318 318 321 325 326 329 327 301 264 240 292 307 301 301 306 296 286 268 254 262 252 241 224 222 220 212 221 225 217 220 222 216 214 214 215 212 207 200 198 197 199 201 198 197 200 203 200 197 202 203 196 197 197 195 200 203 198 203 215 227 215 210 209 207 207 207 206 207 206 205 204 203 202 204 208 209
341 340 337 332 330 332 335 333 329 330 327 322 322 323 325 326 326 329 325 280 259 270 305 311 309 309 311 298 281 247 232 252 252 250 231 223 218 208 218 222 215 221 220 217 219 213 208 209 205 197 196 196 197 199 195 195 199 199 193 193 200 204 199 197 197 198 199 202 203 201 206 224 232 212 202 203 207 206 205 205 204 204 203 203 205 207 209 211
343 342 340 336 336 336 335 332 332 332 330 328 326 328 328 326 327 323 273 245 268 294 311 314 313 317 316 300 282 245 235 245 245 247 229 218 213 204 214 219 218 226 223 220 223 215 208 207 204 197 193 193 196 196 193 193 195 194 192 193 198 203 198 197 199 199 197 207 212 201 199 211 233 218 200 199 205 205 202 202 202 201 200 202 205 205 206 210
344 344 342 339 338 337 334 333 334 333 332 330 328 330 330 327 325 300 234 234 287 302 315 323 320 320 316 297 278 250 235 232 236 243 225 211 209 205 214 223 226 228 221 220 224 220 210 204 203 200 192 190 192 192 194 193 192 193 191 191 195 201 195 196 202 200 199 214 215 205 200 204 223 221 206 200 202 202 199 199 199 198 198 201 204 202 203 209
345 346 343 340 339 338 337 336 336 335 332 331 330 331 333 328 307 258 250 291 308 310 320 326 324 320 311 289 273 262 237 221 221 226 215 205 202 205 214 221 221 223 221 218 217 216 207 199 200 199 192 190 190 191 194 193 194 198 192 186 190 193 191 195 201 202 208 216 212 208 202 203 216 220 209 203 201 201 201 200 198 196 196 201 206 205 204 209
347 348 345 340 339 340 340 336 334 332 329 330 331 333 335 327 271 249 288 309 307 316 322 320 323 323 310 281 269 269 246 219 209 208 209 203 198 202 211 214 209 210 214 206 198 199 201 197 195 193 193 194 191 191 189 187 196 202 191 184 188 187 189 196 193 201 215 214 208 207 203 205 216 220 214 203 199 201 203 202 200 197 196 199 205 206 207 210
347 348 346 342 341 345 347 339 334 332 329 329 333 336 335 303 265 282 306 310 306 315 318 320 324 318 302 282 270 259 247 229 207 205 209 203 200 205 213 218 212 210 207 188 183 188 193 198 199 193 193 198 197 192 183 182 194 199 188 185 187 182 184 192 191 200 210 210 206 203 204 211 215 217 219 209 198 200 202 202 200 198 197 197 200 205 209 210
348 348 346 347 349 351 350 344 339 336 332 331 336 338 315 260 279 306 313 311 314 317 318 322 322 312 292 271 269 253 243 230 202 203 206 201 204 209 215 220 220 223 216 187 186 187 182 192 200 196 191 194 197 194 183 181 190 193 188 189 191 189 185 185 194 198 193 199 200 197 203 212 210 212 217 213 200 198 200 199 199 198 198 196 195 202 209 210
350 349 347 352 354 351 350 347 343 341 338 336 337 327 283 273 298 315 319 316 319 323 325 325 316 309 291 254 250 244 230 215 198 204 205 200 204 210 216 220 220 228 224 197 189 190 190 190 190 191 190 187 190 192 185 181 186 188 188 194 197 193 187 187 200 196 188 193 196 195 203 208 208 207 206 203 193 195 198 195 195 195 194 194 192 199 208 209
351 350 352 359 358 353 350 349 345 341 340 338 330 302 278 296 307 309 317 319 318 320 325 331 323 314 306 252 235 227 217 203 197 208 205 200 206 211 218 222 218 222 222 202 189 192 198 186 178 183 188 186 184 186 186 183 184 185 189 197 199 192 185 188 194 187 188 197 193 196 202 198 198 197 193 192 185 189 195 192 192 192 191 192 191 196 207 209
349 351 2 4 358 353 348 345 344 340 343 344 326 305 302 305 303 309 319 317 316 321 321 320 318 323 331 289 251 206 198 195 198 211 202 192 204 210 215 225 217 214 218 211 200 200 199 171 171 180 184 183 183 185 190 189 184 185 191 194 194 194 189 188 191 180 187 204 191 193 199 191 193 193 187 189 188 187 189 188 190 189 189 191 189 196 207 207
348 356 9 2 352 351 346 343 348 349 355 351 326 314 315 311 311 318 319 310 317 331 322 300 300 321 347 333 319 179 188 190 190 206 194 181 203 214 211 219 216 211 218 222 219 214 205 172 173 183 181 179 183 189 192 191 189 190 193 192 191 196 191 185 188 183 186 198 188 191 199 197 196 190 182 186 189 186 185 186 187 187 188 190 190 198 206 206
352 3 7 354 347 350 349 348 360 4 2 346 320 314 313 315 321 323 312 310 326 339 326 297 298 313 333 342 325 187 206 195 182 193 188 181 203 211 202 207 211 209 213 217 223 216 203 179 174 181 180 176 184 194 192 188 191 194 194 194 195 199 196 188 188 190 188 191 188 191 198 203 202 189 179 184 186 183 181 183 186 186 187 187 191 201 206 204
2 11 354 342 347 352 355 3 7 4 353 327 317 324 322 323 332 336 322 322 333 340 335 321 297 296 311 304 280 209 208 201 181 184 188 188 196 196 196 203 208 206 205 209 221 213 198 193 179 177 177 178 183 192 192 184 186 190 190 193 194 192 193 192 192 197 197 191 187 191 197 206 205 192 182 186 189 187 183 180 183 186 186 187 195 205 206 202
10 12 338 336 350 356 7 18 9 354 334 317 322 333 337 339 344 354 344 332 333 340 343 339 306 287 297 286 273 210 209 205 186 192 200 193 188 185 195 204 204 199 197 204 217 213 204 210 189 175 175 182 185 187 191 186 185 188 189 191 191 185 186 190 191 196 199 198 193 188 198 206 200 189 184 187 188 188 185 183 182 185 189 191 198 208 209 202
10 5 341 346 353 358 18 25 4 342 324 322 334 345 348 345 346 351 342 331 333 339 345 352 329 287 291 289 281 225 230 217 198 203 204 196 194 192 197 200 197 195 196 201 209 205 209 220 191 178 175 180 181 183 190 190 188 191 194 193 189 184 188 192 186 187 194 199 194 186 195 196 185 176 171 177 183 185 185 185 183 184 189 191 195 206 211 205
5 358 354 360 356 2 22 20 350 343 340 335 348 356 351 337 334 338 336 328 326 331 339 351 345 297 307 313 270 232 230 228 219 208 204 205 200 198 201 197 194 196 200 204 204 199 210 228 188 178 171 172 175 181 189 189 188 192 197 196 191 188 193 196 189 187 194 198 191 187 183 165 162 163 158 160 172 181 183 184 182 183 186 188 194 205 208 205
3 1 355 355 355 6 22 5 348 355 352 346 355 2 359 345 331 330 336 335 323 323 334 344 348 329 313 295 248 238 230 227 222 202 197 205 199 198 200 195 192 193 197 203 198 192 204 223 190 177 164 167 175 179 186 190 192 194 193 193 191 190 195 194 183 187 196 190 182 187 179 153 152 167 173 168 170 177 182 183 183 183 181 185 196 202 200 199
8 5 349 347 351 1 6 353 354 356 348 351 359 0 359 360 356 340 339 341 333 329 331 334 345 336 288 270 257 252 237 220 219 210 203 199 195 194 190 189 189 186 195 202 187 190 212 216 197 185 165 166 175 179 183 186 190 193 190 190 191 191 194 191 174 183 194 187 183 191 170 149 153 174 182 183 181 176 176 179 182 183 180 187 197 197 192 196
12 358 350 353 350 355 356 348 353 357 352 354 356 356 358 1 5 0 350 350 347 341 333 325 338 342 297 270 277 260 243 231 218 217 218 204 188 183 182 184 185 184 201 199 175 185 223 202 195 196 181 172 173 180 183 182 187 192 190 190 192 193 194 194 185 183 186 185 181 165 140 146 157 173 175 181 184 179 177 177 177 181 187 194 198 191 191 198
7 347 355 4 1 0 357 340 350 5 5 357 350 350 354 357 3 6 357 354 348 339 341 340 340 343 319 274 284 283 281 249 205 207 230 209 179 174 178 179 183 194 209 194 172 187 214 197 204 213 196 178 173 179 183 184 190 192 189 189 193 194 193 195 194 178 176 181 157 103 116 141 147 157 163 173 183 183 182 178 180 189 196 200 197 191 197 204
2 350 358 5 1 355 353 358 11 13 6 354 347 347 349 356 2 0 350 351 354 346 345 351 347 333 306 280 298 318 352 344 184 195 216 187 167 166 172 174 185 199 205 191 184 205 220 206 215 224 213 190 178 181 185 189 193 192 191 192 192 193 193 193 191 172 165 165 130 101 107 117 117 137 154 162 177 185 184 180 185 194 195 194 194 195 202 206
360 359 0 1 356 350 355 9 11 6 354 344 344 349 352 356 359 0 354 349 355 3 357 357 4 356 290 314 337 344 358 12 151 278 189 176 169 166 168 174 185 193 197 191 195 223 262 235 214 218 221 210 195 185 183 188 193 191 192 193 190 192 194 191 187 174 154 124 107 109 107 96 87 111 155 163 170 178 181 181 189 197 196 195 197 198 201 204
0 3 2 360 357 356 4 6 352 344 342 342 345 347 350 349 349 358 3 351 355 8 7 7 18 32 35 12 359 359 348 278 296 337 143 157 165 168 170 178 182 184 189 188 197 224 248 241 212 208 214 215 206 186 180 185 191 190 192 192 190 192 194 193 191 187 178 139 127 145 123 100 61 59 131 165 167 171 181 187 194 200 200 202 201 196 198 200
0 4 2 1 2 4 9 4 344 342 346 349 347 343 344 344 339 348 359 2 4 6 5 11 14 13 19 12 351 349 334 245 246 232 142 155 168 169 168 179 184 184 189 193 208 228 228 230 220 212 207 201 193 182 178 184 189 192 194 193 192 192 193 195 197 200 205 200 200 217 139 123 57 41 78 137 155 168 181 188 194 198 197 198 199 194 195 196
1 4 3 2 5 8 6 358 350 351 351 350 348 341 340 343 341 344 352 5 19 9 3 9 5 1 12 8 340 319 284 283 197 177 164 165 172 171 168 175 179 184 197 210 219 222 229 240 224 207 199 188 185 181 177 180 187 196 197 193 192 192 192 197 202 206 209 200 201 212 132 132 70 32 44 63 136 159 174 182 189 194 193 194 194 194 195 195
Height
3096 3095 3094 3093 3092 3091 3090 3089 3088 3087 3087 3086 3085 3084 3084 3083 3083 3082 3082 3081 3081 3081 3081 3081 3081 3081 3082 3082 3081 3082 3082 3082 3083 3083 3084 3086 3087 3086 3087 3090 3093 3096 3098 3101 3104 3106 3108 3111 3114 3117 3119 3122 3124 3127 3131 3134 3138 3142 3142 3138 3133 3133 3136 3139 3142 3143 3144 3146 3147 3149 3150 3151 3153 3155 3156 3157 3156 3157 3159 3160 3161 3161 3162 3162 3162 3162 3163 3164
3095 3094 3093 3092 3091 3090 3089 3088 3087 3086 3086 3085 3084 3083 3082 3081 3081 3081 3080 3080 3079 3079 3079 3079 3079 3079 3080 3080 3080 3080 3080 3080 3080 3080 3082 3083 3084 3083 3084 3086 3089 3091 3094 3096 3098 3101 3104 3107 3110 3113 3115 3117 3119 3122 3126 3129 3133 3134 3134 3131 3127 3129 3134 3138 3141 3142 3144 3145 3146 3148 3148 3149 3152 3153 3154 3154 3154 3155 3156 3158 3159 3159 3161 3160 3159 3160 3161 3163
3094 3093 3092 3091 3090 3089 3088 3087 3086 3085 3084 3083 3082 3081 3080 3080 3079 3079 3078 3078 3077 3077 3077 3077 3077 3077 3078 3078 3078 3078 3078 3078 3076 3077 3080 3080 3080 3080 3081 3083 3084 3087 3089 3091 3093 3096 3099 3102 3106 3108 3111 3113 3115 3118 3121 3125 3126 3127 3128 3124 3122 3129 3133 3136 3138 3140 3143 3144 3145 3146 3146 3147 3149 3150 3151 3152 3152 3153 3154 3156 3157 3158 3159 3158 3156 3158 3160 3161
3092 3091 3090 3089 3088 3087 3086 3085 3084 3083 3082 3081 3080 3079 3079 3078 3078 3077 3077 3076 3076 3075 3075 3075 3075 3075 3076 3076 3076 3075 3075 3075 3072 3074 3077 3076 3077 3077 3078 3079 3081 3083 3085 3087 3089 3091 3094 3098 3101 3104 3106 3108 3111 3115 3116 3119 3120 3121 3121 3118 3121 3129 3131 3132 3136 3138 3141 3142 3143 3144 3145 3145 3147 3148 3147 3149 3150 3150 3152 3154 3156 3156 3158 3157 3154 3156 3158 3159
3091 3090 3089 3088 3087 3086 3085 3084 3083 3082 3081 3079 3078 3078 3077 3077 3076 3076 3075 3075 3074 3074 3073 3073 3073 3074 3074 3073 3074 3073 3074 3073 3069 3070 3074 3073 3073 3074 3075 3077 3078 3079 3081 3083 3085 3087 3090 3094 3097 3099 3102 3104 3107 3110 3111 3113 3117 3116 3115 3115 3121 3126 3126 3129 3134 3136 3138 3140 3140 3141 3142 3143 3145 3145 3144 3146 3147 3148 3150 3152 3154 3154 3156 3155 3152 3154 3156 3157
3090 3089 3088 3087 3086 3084 3083 3082 3081 3080 3079 3078 3077 3076 3076 3075 3074 3074 3073 3073 3072 3072 3072 3072 3072 3072 3072 3071 3072 3071 3072 3073 3067 3066 3070 3070 3070 3072 3072 3074 3075 3077 3078 3079 3081 3083 3085 3089 3092 3094 3097 3100 3102 3105 3107 3110 3113 3112 3111 3113 3117 3121 3123 3127 3131 3133 3135 3136 3136 3137 3139 3141 3142 3141 3142 3144 3144 3147 3149 3150 3152 3152 3153 3152 3150 3151 3154 3155
3089 3088 3087 3086 3085 3084 3082 3081 3080 3079 3078 3077 3076 3075 3074 3073 3072 3071 3070 3070 3069 3069 3068 3068 3068 3068 3069 3069 3069 3069 3069 3070 3065 3062 3067 3067 3067 3069 3069 3070 3072 3074 3076 3077 3078 3079 3082 3085 3087 3090 3094 3095 3098 3101 3105 3108 3109 3107 3107 3110 3113 3116 3120 3124 3127 3129 3131 3131 3132 3135 3136 3137 3137 3138 3140 3141 3141 3145 3147 3148 3150 3150 3150 3151 3150 3150 3152 3154
3088 3087 3086 3085 3084 3082 3081 3080 3078 3077 3076 3075 3074 3073 3072 3071 3070 3070 3068 3067 3066 3065 3065 3064 3064 3064 3065 3065 3065 3066 3065 3066 3063 3058 3063 3064 3063 3066 3067 3067 3069 3071 3073 3073 3075 3077 3078 3081 3083 3087 3090 3092 3095 3098 3102 3105 3105 3102 3103 3107 3111 3113 3116 3119 3123 3125 3127 3127 3129 3132 3132 3131 3134 3136 3137 3138 3140 3142 3144 3146 3148 3148 3149 3150 3150 3149 3150 3152
3087 3086 3084 3083 3082 3081 3080 3078 3077 3075 3074 3073 3072 3071 3070 3069 3069 3068 3067 3066 3065 3064 3063 3062 3062 3061 3061 3060 3060 3061 3062 3062 3060 3056 3058 3061 3060 3062 3063 3064 3065 3068 3069 3070 3072 3073 3075 3077 3080 3084 3087 3090 3093 3096 3099 3100 3098 3098 3101 3105 3107 3110 3113 3115 3118 3121 3123 3125 3126 3128 3127 3128 3133 3134 3133 3134 3138 3140 3141 3143 3145 3145 3147 3149 3149 3148 3148 3151
3085 3084 3083 3082 3081 3080 3078 3077 3075 3074 3072 3071 3070 3069 3069 3068 3067 3066 3065 3064 3063 3062 3061 3060 3060 3059 3059 3058 3057 3057 3058 3058 3056 3054 3054 3057 3057 3058 3060 3061 3062 3064 3066 3067 3068 3070 3072 3074 3077 3082 3084 3086 3090 3092 3094 3095 3094 3098 3101 3102 3104 3106 3110 3111 3113 3116 3119 3120 3122 3124 3124 3125 3131 3131 3127 3130 3135 3137 3138 3141 3142 3142 3144 3146 3147 3146 3146 3148
3084 3083 3081 3080 3079 3077 3076 3075 3073 3072 3070 3069 3068 3067 3067 3066 3064 3063 3063 3062 3061 3059 3059 3058 3057 3057 3056 3056 3054 3054 3055 3054 3052 3051 3051 3053 3054 3054 3056 3057 3059 3061 3062 3063 3065 3067 3069 3071 3074 3078 3080 3081 3085 3087 3089 3091 3093 3097 3099 3099 3100 3102 3106 3107 3107 3111 3114 3116 3118 3121 3122 3123 3127 3124 3122 3128 3133 3134 3136 3138 3138 3139 3141 3143 3143 3143 3144 3146
3082 3081 3079 3078 3077 3075 3074 3072 3071 3069 3068 3067 3066 3065 3064 3063 3062 3061 3060 3059 3058 3057 3056 3055 3054 3053 3052 3051 3051 3052 3052 3051 3050 3048 3047 3049 3049 3050 3052 3053 3055 3057 3058 3060 3061 3063 3065 3067 3070 3072 3075 3078 3081 3084 3085 3088 3092 3094 3096 3095 3096 3099 3101 3101 3102 3106 3110 3112 3115 3120 3119 3116 3117 3116 3119 3128 3130 3130 3133 3134 3135 3137 3139 3140 3140 3139 3141 3143
3080 3079 3077 3076 3074 3073 3071 3070 3069 3067 3066 3064 3063 3062 3061 3060 3059 3058 3058 3057 3055 3054 3053 3052 3051 3049 3048 3045 3047 3049 3048 3048 3047 3045 3045 3045 3045 3046 3047 3049 3051 3053 3054 3056 3058 3060 3061 3063 3065 3067 3071 3074 3077 3081 3081 3084 3088 3090 3092 3092 3094 3095 3094 3095 3098 3103 3107 3108 3112 3117 3111 3105 3108 3112 3119 3125 3125 3126 3130 3130 3131 3135 3136 3137 3137 3137 3139 3140
3078 3077 3075 3073 3072 3070 3069 3068 3066 3064 3063 3062 3060 3059 3058 3057 3056 3055 3055 3054 3052 3051 3050 3049 3047 3046 3043 3041 3043 3044 3044 3044 3043 3042 3042 3041 3041 3042 3043 3044 3046 3048 3050 3051 3054 3056 3057 3058 3061 3063 3067 3068 3073 3079 3079 3081 3083 3086 3088 3088 3088 3088 3087 3091 3095 3098 3102 3103 3108 3112 3103 3098 3106 3111 3116 3121 3120 3122 3126 3126 3128 3132 3132 3134 3135 3134 3136 3137
3077 3075 3073 3071 3070 3068 3067 3065 3064 3062 3060 3059 3058 3056 3054 3053 3052 3052 3051 3050 3049 3048 3047 3046 3044 3042 3038 3036 3038 3039 3039 3039 3038 3039 3039 3038 3038 3038 3040 3041 3042 3044 3046 3047 3049 3052 3053 3055 3057 3059 3063 3065 3069 3074 3075 3077 3079 3081 3082 3079 3080 3082 3083 3088 3090 3093 3097 3100 3104 3105 3097 3096 3104 3109 3113 3116 3116 3118 3122 3123 3125 3128 3129 3130 3131 3132 3133 3134
3075 3073 3071 3069 3067 3065 3064 3063 3061 3059 3058 3056 3055 3053 3051 3050 3049 3049 3047 3046 3046 3044 3043 3042 3040 3039 3035 3034 3034 3034 3034 3034 3034 3035 3034 3035 3035 3034 3037 3038 3039 3040 3041 3043 3045 3048 3050 3052 3053 3056 3060 3064 3066 3068 3072 3073 3074 3074 3073 3072 3075 3078 3081 3084 3085 3088 3093 3097 3099 3096 3093 3096 3102 3106 3110 3112 3111 3112 3117 3120 3121 3124 3126 3126 3127 3129 3130 3130
3073 3071 3069 3067 3065 3063 3062 3060 3058 3056 3055 3053 3052 3051 3049 3047 3046 3045 3044 3043 3042 3041 3040 3039 3038 3035 3031 3031 3031 3031 3030 3029 3029 3030 3030 3031 3031 3032 3033 3034 3036 3037 3038 3040 3041 3044 3047 3049 3050 3053 3056 3059 3062 3066 3067 3064 3063 3065 3066 3068 3071 3074 3077 3080 3080 3083 3088 3091 3093 3092 3093 3095 3099 3103 3106 3108 3108 3108 3111 3116 3118 3121 3122 3122 3124 3126 3127 3127
3071 3069 3067 3065 3063 3061 3059 3058 3055 3053 3051 3050 3049 3048 3046 3044 3043 3042 3040 3039 3039 3039 3037 3036 3035 3033 3030 3029 3028 3028 3028 3026 3024 3025 3026 3026 3027 3029 3029 3031 3033 3034 3036 3038 3038 3040 3043 3046 3048 3050 3052 3053 3056 3058 3055 3050 3053 3057 3061 3064 3067 3070 3073 3075 3077 3079 3083 3086 3088 3090 3090 3092 3097 3101 3102 3105 3105 3104 3107 3111 3114 3117 3119 3119 3121 3122 3124 3125
3070 3067 3065 3063 3061 3059 3057 3055 3052 3050 3047 3046 3046 3045 3043 3041 3039 3038 3036 3034 3034 3035 3035 3033 3030 3029 3028 3028 3027 3026 3025 3022 3020 3021 3023 3023 3023 3024 3025 3027 3029 3031 3034 3035 3035 3036 3040 3043 3044 3044 3043 3043 3045 3047 3046 3048 3054 3058 3060 3062 3065 3067 3068 3071 3075 3076 3079 3083 3084 3085 3087 3089 3094 3097 3099 3101 3102 3101 3104 3107 3110 3113 3115 3116 3117 3119 3121 3123
3068 3066 3063 3061 3059 3056 3054 3052 3049 3047 3044 3043 3042 3042 3042 3040 3038 3036 3033 3030 3030 3029 3030 3030 3027 3023 3023 3025 3025 3026 3024 3019 3016 3018 3020 3020 3021 3022 3023 3024 3026 3028 3029 3031 3032 3033 3036 3038 3036 3034 3034 3037 3040 3044 3048 3053 3057 3058 3059 3061 3062 3064 3065 3068 3073 3074 3076 3079 3080 3082 3085 3087 3090 3093 3096 3099 3098 3098 3100 3103 3106 3109 3111 3113 3114 3116 3119 3121
3066 3064 3061 3059 3056 3053 3051 3049 3046 3044 3042 3040 3039 3039 3039 3039 3037 3036 3031 3028 3028 3027 3025 3024 3023 3020 3019 3020 3021 3022 3021 3018 3017 3017 3017 3018 3019 3020 3021 3022 3023 3024 3024 3028 3031 3031 3032 3031 3028 3029 3033 3037 3042 3046 3050 3053 3054 3055 3055 3057 3059 3060 3062 3065 3069 3072 3073 3075 3077 3080 3083 3084 3086 3089 3093 3095 3095 3095 3097 3099 3102 3105 3107 3109 3111 3113 3117 3118
3064 3061 3059 3056 3053 3050 3048 3046 3043 3042 3040 3038 3037 3037 3037 3036 3033 3032 3028 3023 3024 3025 3020 3017 3017 3015 3014 3015 3016 3017 3016 3016 3016 3016 3016 3016 3016 3017 3019 3020 3020 3020 3022 3025 3027 3027 3026 3024 3024 3029 3033 3037 3041 3044 3048 3050 3051 3052 3052 3053 3054 3056 3060 3062 3065 3069 3070 3072 3075 3077 3079 3080 3083 3086 3089 3091 3091 3092 3094 3097 3100 3102 3103 3105 3108 3111 3114 3115
3062 3059 3056 3054 3051 3048 3046 3043 3041 3039 3038 3037 3036 3035 3035 3034 3031 3029 3026 3020 3018 3019 3016 3014 3014 3013 3013 3014 3013 3013 3012 3012 3013 3013 3014 3014 3014 3014 3016 3017 3017 3017 3019 3020 3021 3021 3020 3019 3023 3028 3032 3035 3038 3041 3045 3047 3048 3049 3049 3049 3049 3052 3056 3056 3060 3065 3067 3069 3072 3075 3077 3078 3080 3083 3084 3086 3089 3090 3092 3094 3097 3099 3101 3102 3105 3107 3110 3111
3059 3057 3053 3051 3048 3046 3043 3041 3039 3038 3036 3035 3034 3033 3032 3031 3029 3027 3024 3018 3015 3015 3014 3014 3013 3013 3012 3012 3010 3009 3009 3009 3009 3010 3011 3011 3012 3012 3012 3014 3014 3014 3015 3017 3018 3018 3017 3018 3023 3027 3029 3031 3034 3037 3040 3043 3044 3045 3047 3046 3046 3049 3051 3053 3058 3063 3066 3068 3070 3072 3073 3073 3075 3077 3079 3083 3086 3087 3089 3091 3094 3096 3098 3100 3102 3105 3106 3108
3058 3054 3051 3048 3046 3043 3042 3039 3038 3037 3035 3033 3032 3032 3031 3029 3027 3025 3022 3017 3014 3013 3013 3012 3011 3010 3009 3008 3007 3007 3007 3006 3006 3007 3008 3008 3009 3010 3010 3011 3012 3011 3012 3014 3017 3017 3016 3019 3022 3024 3026 3028 3031 3033 3036 3039 3040 3043 3044 3044 3045 3047 3049 3053 3056 3060 3062 3063 3064 3068 3067 3066 3070 3073 3074 3078 3081 3083 3085 3087 3090 3092 3095 3097 3099 3102 3102 3104
3056 3052 3049 3046 3043 3042 3040 3038 3036 3035 3034 3032 3031 3030 3029 3027 3026 3023 3020 3017 3014 3013 3012 3011 3010 3009 3007 3006 3005 3005 3005 3003 3002 3003 3004 3005 3005 3007 3009 3009 3009 3009 3010 3012 3014 3014 3014 3016 3019 3021 3023 3026 3028 3029 3032 3036 3037 3039 3041 3043 3045 3046 3048 3051 3053 3055 3056 3056 3060 3064 3062 3061 3065 3068 3069 3073 3076 3078 3081 3083 3085 3088 3090 3093 3096 3099 3099 3101
3054 3051 3047 3044 3041 3040 3039 3037 3035 3034 3032 3031 3030 3029 3028 3026 3024 3022 3020 3016 3012 3011 3011 3010 3009 3007 3006 3005 3003 3003 3003 3001 3001 3000 3001 3002 3003 3005 3007 3007 3007 3007 3009 3011 3011 3009 3011 3013 3016 3018 3021 3022 3024 3025 3028 3033 3035 3036 3039 3042 3044 3045 3046 3048 3050 3052 3053 3056 3058 3060 3061 3060 3058 3060 3065 3069 3072 3074 3076 3078 3081 3084 3086 3090 3093 3095 3097 3100
3053 3049 3046 3043 3041 3038 3037 3036 3034 3033 3031 3030 3029 3028 3026 3025 3023 3021 3021 3016 3009 3009 3009 3007 3006 3004 3003 3002 3000 3000 3000 3000 3001 2999 2999 3000 3001 3003 3004 3004 3006 3006 3007 3009 3007 3006 3009 3011 3012 3015 3017 3019 3021 3023 3027 3032 3033 3034 3038 3042 3044 3044 3045 3046 3048 3049 3052 3055 3053 3055 3060 3059 3053 3055 3060 3064 3066 3068 3070 3073 3077 3080 3083 3086 3089 3092 3095 3098
3051 3048 3045 3042 3040 3038 3036 3035 3033 3031 3030 3029 3028 3027 3025 3023 3021 3020 3021 3016 3008 3007 3007 3005 3003 3001 3000 2998 2997 2997 2997 2999 3001 2998 2998 2999 2999 3001 3002 3003 3005 3006 3007 3007 3006 3007 3009 3010 3012 3013 3014 3017 3020 3023 3026 3029 3032 3035 3038 3042 3044 3043 3044 3046 3046 3047 3051 3051 3047 3049 3055 3055 3052 3052 3054 3057 3059 3061 3066 3070 3074 3077 3080 3083 3086 3089 3093 3096
3050 3047 3044 3041 3039 3037 3035 3033 3032 3030 3029 3028 3026 3025 3023 3021 3020 3019 3017 3012 3007 3005 3005 3003 3001 2999 2998 2996 2995 2995 2995 2997 2998 2997 2997 2998 2998 2999 3001 3003 3004 3005 3005 3005 3005 3007 3008 3010 3011 3012 3013 3017 3020 3023 3025 3028 3032 3035 3037 3040 3043 3043 3043 3045 3044 3046 3048 3045 3043 3045 3050 3052 3050 3048 3049 3050 3053 3058 3063 3067 3070 3074 3077 3079 3083 3086 3090 3093
3049 3046 3043 3040 3038 3036 3034 3032 3030 3029 3028 3026 3024 3023 3022 3019 3019 3017 3012 3008 3005 3004 3002 3001 3000 2998 2996 2995 2994 2993 2993 2994 2995 2996 2996 2997 2998 2999 3000 3001 3002 3002 3003 3003 3004 3006 3007 3008 3009 3010 3013 3016 3019 3022 3024 3028 3031 3031 3033 3037 3040 3041 3042 3043 3043 3045 3042 3037 3039 3043 3047 3050 3047 3043 3045 3048 3052 3057 3061 3063 3066 3070 3073 3076 3080 3084 3087 3090
3048 3045 3042 3039 3037 3035 3033 3031 3030 3028 3026 3025 3023 3021 3020 3018 3017 3014 3010 3007 3005 3003 3001 3000 2998 2996 2994 2994 2993 2992 2991 2992 2993 2994 2995 2996 2996 2997 2997 2997 2998 2999 2999 2999 3001 3004 3005 3006 3007 3009 3011 3013 3016 3018 3021 3026 3027 3027 3031 3033 3034 3037 3040 3039 3038 3037 3034 3032 3037 3041 3043 3045 3043 3043 3045 3046 3050 3054 3057 3061 3064 3067 3070 3074 3077 3081 3084 3087
3046 3043 3041 3038 3036 3034 3033 3031 3029 3028 3026 3024 3022 3020 3019 3018 3015 3011 3008 3007 3004 3002 3000 2998 2996 2994 2993 2992 2992 2991 2990 2990 2990 2992 2993 2995 2995 2995 2995 2996 2996 2996 2996 2996 2999 3001 3003 3005 3007 3008 3009 3010 3013 3014 3014 3018 3020 3022 3025 3027 3026 3027 3030 3033 3031 3030 3030 3032 3035 3039 3040 3039 3039 3042 3044 3044 3047 3051 3055 3059 3062 3064 3068 3071 3075 3078 3081 3085
3045 3042 3039 3037 3035 3033 3032 3030 3028 3027 3025 3023 3021 3019 3019 3017 3012 3008 3008 3006 3003 3001 3000 2997 2994 2993 2992 2992 2991 2990 2989 2989 2990 2991 2992 2993 2994 2994 2995 2995 2995 2995 2995 2996 2997 2998 3000 3002 3003 3005 3007 3008 3010 3012 3013 3016 3018 3020 3022 3024 3022 3019 3021 3025 3025 3024 3027 3030 3033 3036 3036 3035 3037 3039 3041 3043 3046 3049 3053 3056 3060 3063 3066 3070 3074 3076 3078 3082
3044 3041 3038 3036 3034 3033 3031 3029 3027 3025 3023 3022 3020 3019 3018 3015 3011 3008 3006 3004 3002 3000 2998 2996 2993 2991 2991 2990 2989 2989 2989 2989 2990 2990 2990 2991 2992 2993 2994 2994 2993 2994 2995 2994 2994 2996 2997 2998 2999 3003 3006 3007 3008 3011 3014 3016 3018 3020 3022 3022 3019 3018 3020 3023 3023 3024 3027 3028 3030 3032 3032 3034 3036 3036 3039 3043 3045 3048 3052 3054 3058 3061 3064 3069 3072 3074 3076 3080
3043 3040 3038 3035 3034 3032 3030 3028 3026 3024 3022 3021 3020 3019 3017 3014 3011 3008 3005 3002 3001 2998 2996 2994 2992 2990 2989 2989 2988 2988 2988 2988 2989 2990 2989 2990 2992 2992 2993 2993 2993 2993 2993 2992 2993 2994 2995 2996 2998 3002 3005 3006 3007 3010 3013 3014 3014 3017 3018 3017 3016 3018 3021 3023 3023 3025 3028 3028 3028 3029 3030 3032 3034 3035 3038 3041 3043 3047 3050 3052 3056 3059 3062 3066 3069 3071 3073 3077
3043 3040 3037 3035 3034 3032 3029 3027 3025 3023 3022 3021 3019 3017 3015 3012 3009 3007 3004 3001 2999 2998 2995 2994 2992 2990 2989 2988 2987 2987 2987 2988 2989 2989 2989 2990 2990 2991 2992 2992 2992 2992 2992 2992 2993 2994 2994 2996 2998 3000 3003 3005 3007 3010 3013 3014 3014 3014 3014 3014 3016 3018 3019 3021 3022 3024 3027 3027 3026 3027 3027 3028 3031 3033 3036 3039 3041 3044 3047 3050 3054 3057 3060 3064 3066 3069 3071 3075
3043 3040 3037 3035 3033 3031 3029 3027 3025 3023 3021 3019 3018 3015 3013 3011 3008 3006 3003 3000 2998 2997 2995 2993 2991 2989 2989 2989 2988 2987 2987 2988 2988 2988 2988 2989 2989 2990 2991 2991 2991 2992 2992 2993 2993 2994 2994 2995 2998 2999 3001 3004 3007 3009 3011 3013 3014 3015 3014 3014 3014 3014 3013 3016 3019 3021 3023 3024 3024 3025 3027 3028 3028 3030 3033 3037 3039 3042 3045 3048 3052 3055 3058 3062 3064 3066 3069 3073
3042 3038 3036 3035 3033 3031 3028 3026 3024 3022 3020 3019 3018 3015 3013 3010 3008 3006 3003 2999 2998 2996 2994 2993 2992 2990 2989 2989 2988 2988 2987 2987 2988 2988 2988 2989 2989 2988 2989 2990 2991 2992 2993 2993 2993 2994 2994 2994 2996 2998 3000 3003 3006 3007 3007 3009 3011 3014 3016 3015 3014 3014 3012 3013 3016 3019 3020 3021 3023 3026 3027 3026 3026 3028 3031 3035 3038 3041 3044 3046 3050 3053 3056 3060 3061 3063 3066 3071
3042 3039 3038 3037 3034 3031 3028 3026 3024 3022 3020 3019 3018 3015 3012 3008 3005 3004 3002 2999 2998 2996 2993 2992 2992 2990 2990 2989 2988 2988 2988 2988 2988 2988 2988 2989 2989 2988 2989 2990 2991 2991 2993 2994 2994 2994 2995 2994 2994 2997 3000 3001 3003 3004 3004 3005 3007 3010 3012 3012 3012 3014 3015 3014 3016 3018 3018 3018 3020 3024 3026 3025 3026 3028 3030 3033 3037 3040 3042 3045 3049 3052 3055 3058 3059 3061 3064 3068
3044 3042 3041 3039 3036 3032 3028 3025 3024 3023 3022 3020 3017 3014 3011 3008 3004 3002 3001 2999 2997 2995 2993 2991 2991 2990 2990 2989 2988 2988 2989 2988 2988 2989 2989 2988 2989 2989 2989 2989 2990 2992 2993 2994 2994 2994 2994 2995 2994 2995 2997 2999 3000 3002 3005 3006 3007 3007 3009 3010 3010 3013 3014 3013 3014 3016 3016 3017 3018 3020 3023 3024 3025 3028 3029 3032 3035 3038 3041 3044 3047 3050 3053 3056 3058 3060 3063 3066
3044 3044 3042 3039 3036 3033 3028 3026 3026 3025 3023 3021 3017 3013 3010 3007 3004 3002 3001 2999 2996 2995 2993 2991 2990 2989 2989 2989 2988 2988 2989 2989 2988 2988 2988 2988 2988 2988 2988 2989 2990 2992 2993 2993 2994 2994 2993 2994 2994 2994 2995 2998 3000 3003 3005 3007 3008 3009 3009 3010 3011 3012 3013 3011 3011 3013 3014 3015 3015 3018 3021 3021 3023 3026 3029 3031 3033 3037 3040 3042 3045 3048 3051 3054 3057 3059 3062 3065
3045 3044 3041 3038 3036 3032 3028 3028 3028 3027 3023 3020 3017 3013 3010 3007 3004 3002 3000 2999 2997 2994 2993 2991 2990 2989 2988 2988 2988 2989 2989 2988 2987 2988 2988 2988 2988 2988 2988 2988 2990 2992 2993 2994 2994 2994 2993 2993 2993 2994 2996 2998 3001 3004 3006 3007 3009 3009 3009 3009 3010 3012 3012 3011 3011 3013 3012 3011 3011 3015 3019 3020 3022 3026 3028 3030 3033 3036 3039 3041 3044 3047 3050 3053 3055 3057 3061 3065
3043 3042 3039 3036 3035 3032 3030 3030 3028 3025 3022 3019 3016 3013 3010 3008 3005 3002 3000 2999 2997 2995 2993 2992 2990 2989 2988 2988 2988 2988 2988 2988 2987 2987 2988 2988 2988 2988 2988 2989 2990 2992 2993 2994 2994 2994 2994 2993 2993 2994 2995 2998 3001 3002 3004 3005 3007 3008 3009 3009 3010 3012 3013 3011 3012 3014 3013 3011 3011 3013 3016 3019 3023 3026 3029 3031 3033 3036 3038 3040 3043 3046 3049 3051 3052 3055 3060 3063
3043 3042 3040 3036 3033 3031 3030 3029 3027 3024 3021 3018 3015 3012 3010 3008 3005 3003 3001 2999 2997 2995 2993 2992 2990 2989 2988 2987 2987 2987 2988 2988 2986 2986 2986 2987 2987 2988 2989 2989 2990 2992 2993 2993 2993 2994 2994 2994 2993 2993 2993 2995 2997 2998 2998 3000 3004 3006 3008 3009 3010 3012 3012 3011 3012 3014 3013 3012 3013 3012 3014 3019 3023 3025 3027 3030 3033 3035 3037 3039 3043 3045 3047 3049 3050 3053 3058 3062
3043 3044 3042 3037 3034 3031 3029 3028 3027 3025 3022 3018 3014 3012 3010 3007 3004 3003 3001 2998 2996 2995 2993 2992 2990 2988 2987 2986 2986 2986 2986 2986 2985 2985 2985 2986 2987 2987 2988 2990 2991 2993 2993 2992 2992 2994 2995 2994 2993 2992 2991 2991 2994 2996 2998 3000 3002 3003 3006 3009 3010 3011 3012 3013 3014 3014 3014 3014 3014 3014 3015 3019 3023 3025 3027 3029 3031 3034 3036 3038 3041 3043 3044 3046 3049 3053 3057 3060
3044 3044 3041 3038 3035 3033 3032 3030 3028 3025 3021 3018 3016 3013 3010 3007 3004 3002 3000 2998 2996 2994 2992 2991 2989 2988 2986 2985 2984 2984 2984 2984 2984 2985 2984 2984 2986 2988 2989 2990 2992 2993 2992 2992 2992 2994 2995 2994 2993 2993 2992 2992 2993 2996 2998 3000 3001 3003 3005 3009 3011 3011 3012 3014 3014 3014 3014 3013 3014 3017 3019 3020 3023 3025 3026 3028 3030 3033 3035 3037 3039 3040 3042 3045 3049 3052 3055 3058
3045 3043 3040 3037 3035 3034 3032 3030 3027 3023 3020 3019 3018 3014 3011 3008 3005 3002 3000 2998 2996 2994 2992 2990 2989 2987 2986 2985 2984 2984 2984 2983 2983 2984 2984 2984 2986 2988 2990 2991 2993 2992 2992 2993 2993 2993 2994 2994 2994 2994 2994 2993 2993 2995 2998 3000 3002 3003 3006 3009 3011 3012 3013 3014 3014 3014 3014 3014 3015 3019 3022 3022 3024 3026 3027 3028 3030 3032 3034 3036 3037 3039 3042 3045 3048 3050 3053 3056
3045 3042 3039 3037 3035 3033 3030 3027 3024 3022 3021 3021 3018 3015 3012 3008 3006 3004 3001 2998 2995 2994 2992 2990 2988 2987 2986 2985 2984 2984 2984 2984 2983 2985 2985 2985 2986 2988 2990 2991 2992 2992 2992 2993 2994 2993 2993 2993 2994 2995 2994 2993 2992 2993 2996 3000 3001 3003 3006 3008 3011 3013 3014 3015 3015 3014 3015 3017 3019 3021 3023 3024 3025 3026 3026 3027 3028 3031 3033 3035 3036 3039 3041 3044 3046 3048 3051 3054
3044 3042 3040 3038 3035 3032 3029 3027 3025 3025 3024 3022 3019 3016 3013 3009 3007 3004 3002 2998 2995 2993 2992 2990 2988 2987 2986 2986 2985 2984 2984 2984 2984 2985 2985 2985 2986 2988 2989 2991 2992 2993 2993 2993 2994 2994 2994 2993 2994 2995 2995 2993 2992 2992 2995 2998 3000 3003 3005 3007 3010 3013 3014 3015 3016 3016 3017 3020 3022 3022 3023 3024 3025 3025 3025 3025 3026 3029 3031 3033 3035 3038 3041 3043 3044 3046 3049 3052
3044 3041 3039 3037 3035 3032 3030 3029 3028 3027 3025 3022 3019 3016 3013 3011 3008 3005 3002 3000 2997 2994 2992 2990 2988 2988 2987 2987 2986 2985 2985 2984 2984 2985 2985 2985 2986 2987 2988 2991 2992 2993 2994 2994 2994 2994 2994 2994 2995 2995 2995 2994 2993 2993 2995 2998 3000 3002 3004 3006 3008 3011 3013 3014 3016 3018 3020 3021 3022 3022 3023 3024 3025 3024 3024 3025 3026 3028 3030 3032 3035 3037 3039 3041 3043 3045 3047 3050
3043 3041 3039 3037 3035 3032 3031 3030 3030 3028 3025 3023 3021 3018 3015 3012 3009 3006 3003 3000 2998 2996 2994 2992 2990 2989 2988 2987 2986 2985 2985 2985 2985 2985 2986 2986 2987 2988 2989 2990 2992 2993 2994 2994 2994 2994 2994 2994 2994 2995 2995 2994 2994 2994 2996 2998 3000 3000 3001 3003 3006 3009 3013 3015 3016 3019 3021 3022 3022 3022 3023 3024 3025 3025 3025 3025 3025 3027 3029 3031 3033 3035 3037 3039 3041 3043 3045 3047